Location: Newark
(49.4900°N, 20.6656°E)
Time: 06:45:50
(UTC+00:00)

STARLINK-1547 - Pass Details

Date: 24 September 2020
Orbit: 378 x 381 km, 53.0° (Epoch: 24 October)

Event Time Altitude Azimuth Distance (km) Brightness Sun altitude
Exits shadow 01:30:30 17° 60° (ENE) 1,070 5.9 -27.7°
Drops below altitude 10° 01:31:22 10° 66° (ENE) 1,401 6.6 -27.6°
Sets 01:33:28 0° 72° (ENE) 2,255 7.9 -27.3°
